DW0000 Weather Reports


time (UTC)temp
F
wind
direction
speed
knots
gust
knots
rain 1hr
in
rain 24hr
in
rain mn
in
humidity
%
barometer
mb
20260901081507 54 253 13.0 22.6 0.00 0.11 0.08 73 1018.2
20260901080506 54 249 13.0 21.7 0.00 0.11 0.08 74 1018.1
20260901074505 54 242 13.9 22.6 0.00 0.11 0.08 73 1018.1
20260901074007 54 248 16.5 27.8 0.00 0.11 0.08 75 1018.2
20260901073505 55 245 15.6 24.3 0.00 0.11 0.08 77 1018.0
20260901072507 55 237 11.3 21.7 0.00 0.12 0.08 77 1017.9
20260901071506 55 242 13.9 25.2 0.00 0.12 0.08 75 1017.9
20260901071007 55 238 15.6 25.2 0.00 0.12 0.08 74 1017.7
20260901070508 55 243 14.8 26.1 0.00 0.12 0.08 73 1017.7
20260901070005 54 242 21.7 28.7 0.00 0.12 0.08 73 1017.7
20260901065007 54 247 13.0 21.7 0.00 0.12 0.08 72 1017.5
20260901064505 54 250 13.0 20.9 0.00 0.12 0.08 71 1017.4
20260901064005 54 249 12.2 26.9 0.00 0.12 0.08 69 1017.4
20260901063507 54 244 16.5 26.1 0.00 0.12 0.08 73 1017.5
20260901062505 54 249 11.3 19.1 0.00 0.12 0.08 72 1017.6
20260901062007 54 235 11.3 22.6 0.00 0.12 0.08 71 1017.5
20260901061505 54 237 17.4 26.9 0.00 0.12 0.08 70 1017.4
20260901061006 54 250 12.2 22.6 0.00 0.12 0.08 73 1017.4
20260901060505 54 245 12.2 18.2 0.00 0.12 0.08 74 1017.5
20260901060008 54 237 14.8 24.3 0.00 0.12 0.08 74 1017.3
20260901055507 55 240 14.8 30.4 0.00 0.12 0.08 75 1017.2
20260901054007 55 244 15.6 24.3 0.00 0.12 0.08 70 1016.8
20260901053506 55 243 19.1 32.2 0.00 0.12 0.08 70 1017.0
20260901052505 55 245 13.9 22.6 0.00 0.12 0.08 71 1017.0
20260901051006 55 244 13.9 24.3 0.00 0.12 0.08 73 1016.9
20260901045007 55 244 13.9 24.3 0.00 0.12 0.08 74 1016.7
20260901044506 55 232 14.8 25.2 0.00 0.12 0.08 73 1016.5
20260901044005 55 233 17.4 24.3 0.00 0.12 0.08 73 1016.5
20260901041507 56 239 15.6 24.3 0.00 0.12 0.08 72 1016.5
20260901041006 56 237 15.6 25.2 0.00 0.12 0.08 72 1016.5
20260901040505 56 250 14.8 26.9 0.00 0.12 0.08 72 1016.4
20260901040007 56 226 15.6 26.9 0.00 0.12 0.08 71 1016.5
20260901035506 56 232 15.6 26.9 0.00 0.12 0.08 73 1016.5
20260901034507 57 247 15.6 27.8 0.00 0.12 0.08 72 1016.3
20260901033505 58 246 16.5 25.2 0.00 0.12 0.08 69 1016.1
20260901031506 58 238 18.2 26.9 0.00 0.12 0.08 70 1015.9
20260901030005 57 249 14.8 25.2 0.00 0.12 0.08 68 1015.7
20260901025507 58 248 15.6 30.4 0.00 0.12 0.08 68 1015.9
20260901024505 58 230 13.9 26.9 0.00 0.12 0.08 69 1015.6
20260901024007 58 231 20.9 27.8 0.00 0.12 0.08 66 1016.0
20260901021505 57 249 19.1 27.8 0.00 0.12 0.08 74 1015.7
20260901020505 57 231 16.5 25.2 0.00 0.12 0.08 72 1015.9
20260901015505 57 252 13.0 26.1 0.00 0.12 0.08 70 1015.9
20260901010006 56 248 14.8 21.7 0.00 0.15 0.08 78 1016.4
20260901004505 58 235 15.6 28.7 0.00 0.15 0.08 69 1016.1
20260901004006 59 248 17.4 27.8 0.00 0.15 0.08 68 1016.1
20260901003506 59 249 16.5 28.7 0.00 0.15 0.08 68 1016.0
20260901001505 59 240 18.2 26.9 0.00 0.16 0.08 67 1016.3
20260901001004 59 249 18.2 26.9 0.00 0.16 0.08 68 1016.4
20260901000505 59 244 15.6 25.2 0.00 0.16 0.08 72 1016.3
20260831233005 60 248 16.5 31.3 0.00 0.16 0.08 68 1016.0
20260831232505 59 246 16.5 31.3 0.00 0.16 0.08 69 1016.0
20260831231505 59 238 23.5 33.0 0.00 0.16 0.08 66 1016.2
20260831223506 58 249 17.4 25.2 0.00 0.16 0.08 67 1016.1
20260831222504 57 242 19.1 28.7 0.00 0.16 0.08 66 1015.7
20260831222007 57 244 15.6 28.7 0.00 0.16 0.08 69 1015.7
20260831215505 56 232 18.2 33.0 0.00 0.16 0.08 68 1015.3
20260831215005 56 242 20.0 34.8 0.00 0.16 0.08 67 1015.3
20260831214505 56 246 20.0 33.0 0.00 0.16 0.08 67 1015.1
20260831214006 56 248 18.2 33.9 0.00 0.16 0.08 70 1015.0
20260831213504 56 233 20.9 38.2 0.00 0.16 0.08 71 1015.1
20260831205004 56 230 17.4 25.2 0.00 0.16 0.08 78 1014.6
20260831204506 56 245 15.6 21.7 0.00 0.16 0.08 79 1014.5
20260831204005 56 241 14.8 20.9 0.00 0.16 0.08 80 1014.5
20260831203505 55 238 12.2 26.9 0.00 0.16 0.08 79 1014.5
20260831203006 55 243 18.2 26.1 0.00 0.16 0.08 79 1014.2
20260831202005 55 246 14.8 25.2 0.00 0.16 0.08 78 1014.0
20260831201005 55 249 15.6 27.8 0.00 0.16 0.08 78 1013.8
20260831195506 54 246 13.9 25.2 0.00 0.16 0.08 81 1013.7
20260831195004 54 245 12.2 26.1 0.00 0.16 0.08 82 1013.6
20260831194005 53 245 11.3 26.9 0.01 0.17 0.08 84 1013.6
20260831193505 53 247 13.9 22.6 0.01 0.17 0.08 88 1013.5
20260831193005 53 255 9.6 22.6 0.01 0.17 0.08 89 1013.5
20260831191005 52 261 9.6 24.3 0.03 0.17 0.08 92 1013.5
20260831190005 52 252 14.8 21.7 0.03 0.17 0.08 93 1013.4
20260831184506 52 254 10.4 18.2 0.03 0.17 0.08 93 1013.2
20260831183505 53 229 12.2 20.0 0.02 0.16 0.07 92 1013.3
20260831182505 53 245 17.4 25.2 0.00 0.14 0.06 90 1012.9
20260831182006 53 246 13.9 24.3 0.00 0.14 0.05 88 1012.7
20260831181505 53 238 14.8 22.6 0.00 0.14 0.05 87 1012.8
20260831181004 53 241 14.8 25.2 0.00 0.14 0.05 87 1012.7
20260831180006 54 258 13.9 22.6 0.00 0.14 0.05 88 1012.4
20260831175005 53 262 11.3 27.8 0.02 0.14 0.05 89 1012.2
20260831174505 53 253 14.8 26.1 0.02 0.14 0.05 89 1012.0
20260831173005 53 250 17.4 27.8 0.02 0.14 0.05 90 1011.7
20260831172505 53 253 12.2 25.2 0.02 0.14 0.05 91 1011.8
20260831172004 53 249 14.8 26.9 0.02 0.14 0.05 91 1011.7
20260831171005 52 237 15.6 25.2 0.02 0.14 0.05 91 1011.6
20260831170006 53 249 15.6 30.4 0.02 0.14 0.05 90 1011.7
20260831165506 54 233 22.6 33.0 0.01 0.13 0.04 87 1011.5
20260831165006 54 246 18.2 27.8 0.00 0.12 0.04 87 1011.1
20260831164008 54 247 13.9 24.3 0.00 0.12 0.04 88 1011.2
20260831161006 53 248 17.4 25.2 0.00 0.12 0.04 88 1011.0
20260831160506 53 241 18.2 28.7 0.00 0.12 0.04 89 1011.0
20260831155006 54 246 18.2 30.4 0.00 0.12 0.04 90 1011.2
20260831154506 54 245 13.9 25.2 0.00 0.12 0.04 89 1010.9
20260831154006 54 248 17.4 27.8 0.00 0.13 0.04 88 1011.0
20260831153508 54 249 15.6 24.3 0.01 0.13 0.04 87 1011.1
20260831152506 55 250 19.1 25.2 0.01 0.14 0.04 88 1011.0
20260831152006 54 245 24.3 33.9 0.01 0.14 0.04 87 1011.0
20260831151508 54 240 20.0 30.4 0.01 0.14 0.04 89 1010.9
20260831151006 54 249 16.5 26.1 0.01 0.14 0.04 90 1010.9
20260831145507 54 244 22.6 32.2 0.01 0.14 0.04 92 1010.8
20260831144508 54 243 15.6 26.9 0.01 0.14 0.04 93 1011.1
20260831144007 54 248 17.4 31.3 0.01 0.14 0.04 92 1011.3
20260831143508 54 254 14.8 26.1 0.00 0.13 0.03 91 1011.1
20260831142506 54 248 14.8 25.2 0.00 0.13 0.03 91 1011.2
20260831142006 54 261 12.2 20.9 0.00 0.13 0.03 91 1011.2
20260831141508 54 255 13.9 27.8 0.00 0.14 0.03 91 1011.2
20260831140506 54 252 15.6 28.7 0.00 0.16 0.03 91 1011.3
20260831140006 54 251 14.8 26.1 0.00 0.17 0.03 91 1011.2
20260831135006 53 255 15.6 27.8 0.00 0.17 0.03 91 1011.5
20260831134506 53 249 20.9 33.9 0.00 0.17 0.03 92 1011.3
20260831133006 53 248 14.8 27.8 0.02 0.17 0.03 93 1011.3
20260831132006 53 248 17.4 32.2 0.02 0.17 0.03 94 1011.3
20260831125508 52 260 14.8 25.2 0.03 0.17 0.03 93 1011.2
20260831125006 52 237 20.9 31.3 0.04 0.18 0.03 93 1011.5
20260831124506 52 241 18.2 33.0 0.05 0.17 0.02 92 1011.5
20260831124005 53 232 21.7 34.8 0.05 0.17 0.02 92 1011.7
20260831123507 53 242 21.7 28.7 0.04 0.16 0.01 93 1011.4
20260831123006 53 247 14.8 20.0 0.03 0.15 0.00 93 1011.4
20260831120508 54 230 20.9 30.4 0.03 0.15 0.00 91 1011.3
20260831115006 55 239 22.6 31.3 0.02 0.14 0.14 87 1011.0
20260831113008 55 240 19.1 28.7 0.00 0.13 0.12 83 1011.0
20260831110006 55 259 13.9 26.1 0.00 0.13 0.12 85 1010.7
20260831105506 55 251 15.6 26.1 0.00 0.13 0.12 85 1010.8
20260831104506 55 254 16.5 27.8 0.00 0.13 0.12 84 1010.5
20260831103007 55 262 11.3 27.8 0.00 0.13 0.12 85 1010.4
20260831102506 55 243 15.6 26.1 0.00 0.13 0.12 86 1010.4
20260831101006 55 259 13.9 22.6 0.00 0.13 0.12 86 1010.5
20260831100006 55 245 19.1 28.7 0.00 0.13 0.12 85 1010.5
20260831095505 55 249 18.2 26.9 0.00 0.13 0.12 86 1010.5
20260831094505 55 249 14.8 24.3 0.00 0.13 0.12 88 1010.5
20260831094006 55 266 15.6 25.2 0.00 0.13 0.12 88 1010.3
20260831093507 55 258 14.8 25.2 0.00 0.14 0.12 88 1010.1
20260831091505 55 251 18.2 28.7 0.00 0.14 0.12 87 1010.1
20260831084506 55 248 18.2 30.4 0.00 0.14 0.12 89 1010.0
20260831083507 55 258 12.2 20.9 0.00 0.14 0.12 88 1010.1
20260831082008 56 250 14.8 22.6 0.01 0.14 0.12 91 1010.1